Preview of NWS' New Version of Forecast
This preview is not operational and should not be used for support decisions.

Regional Weather Roundup (RWR)

Issued by Gray - Portland, ME (GYX)

                            
000
ASUS41 KGYX 210105
RWRGYX
WEATHER ROUNDUP FOR MAINE AND NEW HAMPSHIRE
NATIONAL WEATHER SERVICE GRAY ME
900 PM EDT TUE AUG 20 2019

MEZ002-005-006-010-012-015-018-020-021-024-026-027-029-210200-
MAINE
  
CITY           SKY/WX    TMP DP  RH WIND       PRES   REMARKS
PORTLAND       FAIR      71  55  56 SW6       30.04R                  
SANFORD        FAIR      65  59  81 CALM      30.05R                  
BAR HARBOR     FAIR      67  61  81 S3        30.04R                  
WISCASSET      FAIR      64  57  78 CALM      30.05R                  
ROCKLAND       FAIR      62  59  90 W3        30.04S                  
FRYEBURG       FAIR      64  60  87 CALM      30.04R                  
LEWISTONAUBURN FAIR      69  57  65 SE6       30.04R                  
AUGUSTA        FAIR      71  58  63 S6        30.04R                  
WATERVILLE     FAIR      68  61  78 SW5       30.01R                  
BANGOR         FAIR      68  60  75 S5        30.02S                  
GREENVILLE     NOT AVBL                                               
MILLINOCKET    FAIR      71  57  61 CALM      30.01R                  
HOULTON        FAIR      60  57  89 S5        29.98R                  
PRESQUE ISLE   FAIR      66  56  70 S3        29.97S                  
FRENCHVILLE    FAIR      68  51  54 W8        29.96S                  
CARIBOU        FAIR      70  53  54 CALM      29.96R                  
$$

NHZ002-005-008-009-011-012-014-210200-
NEW HAMPSHIRE
  
CITY           SKY/WX    TMP DP  RH WIND       PRES   REMARKS
PORTSMOUTH     MOCLDY    69  58  66 CALM      30.03R                  
ROCHESTER      FAIR      70  58  65 CALM      30.04R                  
NASHUA         FAIR      71  64  78 CALM      30.04R                  
MANCHESTER     MOCLDY    76  59  55 SE3       30.02R                  
CONCORD        FAIR      69  59  70 CALM      30.03S                  
LACONIA        FAIR      68  63  84 CALM      30.04R                  
PLYMOUTH       FAIR      64  62  91 CALM      30.04R                  
BERLIN         NOT AVBL                                               
WHITEFIELD     FAIR      62  58  86 CALM      30.05R                  
JAFFREY        FAIR      65  59  81 CALM      30.08S                  
KEENE          FAIR      65  63  93 CALM      30.06R                  
LEBANON        FAIR      65  55  70 CALM      30.03S                  
MT WASHINGTON  PTCLDY    52  48  87 W17         N/A                   
$$

VTZ005-007-008-210200-
VERMONT
  
CITY           SKY/WX    TMP DP  RH WIND       PRES   REMARKS
ST JOHNSBURY     N/A     67  62  84 MISG      30.02R                  
MONTPELIER     FAIR      70  51  51 SW5       30.08S                  
BURLINGTON     FAIR      76  56  49 CALM      30.00R                  
$$

MAZ007-012-024-CTZ003-RIZ002-NYZ038-NYZ072-210200-
SOUTHERN NEW ENGLAND AND NY
  
CITY           SKY/WX    TMP DP  RH WIND       PRES   REMARKS
BOSTON         FAIR      72  63  73 E3        30.03S                  
WORCESTER      FAIR      71  57  61 SW7       30.08R                  
NANTUCKET      FAIR      66  64  93 SE3       30.07R                  
PROVIDENCE     FAIR      73  64  73 SW5       30.05R                  
HARTFORD       MOCLDY    74  62  66 CALM      30.02S                  
ALBANY         FAIR      76  65  68 CALM      30.02R                  
NEW YORK CITY  FAIR      82  63  52 S8        30.03R                  
$$

ANZ081-ANZ082-ANZ150-NHZ014-MEZ023>029-210200-
COASTAL MARINE OBSERVATIONS
  
STATION/POSITION TIME  TEMP    WIND        PRES    WAVE
                       AIR SEA DIR/SP/G            HT/PER
                 (UTC) (F)     (DEG/KT/KT) (MB)    (FT/S)
MATINICUS ROCK   0050   67                 1016.8R
ISLE OF SHOALS   0000   71     180/ 14/ 15 1016.4R
JEFFREYS LEDGE   0038      66                N/A     2/ 9
CASHES LEDGE BUO 0050   66 65  180/  6/  6 1018.0R   2/ 8
GEORGES BANK BUO 0050   67 71  290/  4/  6 1018.5R   3/10
$$

.............KEY..............
   WCI - WIND CHILL
   TC  - TEMPERATURE IN CELSIUS
   VSB - VISIBILITY IN MILES
   HX  - HEAT INDEX
   FAIR- INDICATES FEW OR NO CLOUDS BELOW 12,000 FT, WITH NO 
         SIGNIFICANT WEATHER AND/OR OBSTRUCTIONS TO VISIBILITY.